Wooster, OH

4:44 PM EST on December 06, 2019 (GMT -0500)
Wayne County

Weather History for KBJJ - October, 2019

Change the Weather History Date:

Friday, October 18, 2019

  Actual Average Record
Temperature  
Mean Temperature 46 °F -  
Max Temperature 57 °F 58 °F 80 °F (2016)
Min Temperature 36 °F 37 °F 26 °F (2001)
Degree Days  
Heating Degree Days 20    
Moisture  
Dew Point 37 °F    
Average Humidity 75    
Maximum Humidity 97    
Minimum Humidity 47    
Precipitation  
Precipitation 0.00 in - - ()
Sea Level Pressure  
Sea Level Pressure 30.06 in    
Wind  
Wind Speed 4 mph (NW)    
Max Wind Speed 8 mph    
Max Gust Speed -    
Visibility 10 miles    
Events      
Averages and records for this station are not official NWS values.
T = Trace of Precipitation, MM = Missing Value Source: NWS Daily Summary

Daily Weather History Graph

Daily Weather History Graph

Search for Another Location

Airport or City:

Astronomy

Oct. 18, 2019 Rise Set
Actual Time 7:41 AM EDT 6:42 PM EDT
Civil Twilight 7:14 AM EDT 7:10 PM EDT
Nautical Twilight 6:42 AM EDT 7:42 PM EDT
Astronomical Twilight 6:10 AM EDT 8:14 PM EDT
Moon 9:56 PM EDT (10/18) 12:15 PM EDT (10/18)
Length of Visible Light 11h 56m
Length of Day
11h 00m
Waning Gibbous, 79% of the Moon is Illuminated
Oct 18
Waning Gibbous
Oct 21
Last Quarter
Oct 27
New
Nov 4
First Quarter
Nov 12
Full

Hourly Weather History & Observations

Time (EDT) Temp. Windchill Dew Point Humidity Pressure Visibility Wind Dir Wind Speed Gust Speed Precip Events Conditions
12:56 AM 46.0 °F 43.9 °F 39.0 °F 76% 29.98 in 10.0 mi NW 4.6 mph - N/A   Overcast
1:56 AM 46.0 °F 42.5 °F 39.0 °F 76% 29.99 in 10.0 mi WNW 6.9 mph - N/A   Overcast
2:56 AM 46.0 °F 41.9 °F 39.0 °F 76% 30.00 in 10.0 mi WNW 8.1 mph - N/A   Overcast
3:56 AM 45.0 °F 41.8 °F 39.9 °F 82% 30.00 in 10.0 mi WNW 5.8 mph - N/A   Overcast
4:56 AM 43.0 °F 41.3 °F 39.9 °F 89% 30.02 in 10.0 mi NW 3.5 mph - N/A   Overcast
5:56 AM 39.0 °F 36.8 °F 37.9 °F 96% 30.04 in 10.0 mi NNW 3.5 mph - N/A   Scattered Clouds
6:56 AM 36.0 °F - 34.0 °F 93% 30.07 in 10.0 mi Calm Calm - N/A   Clear
7:56 AM 36.0 °F 33.3 °F 34.0 °F 93% 30.09 in 10.0 mi WNW 3.5 mph - N/A   Clear
8:56 AM 43.0 °F 41.3 °F 39.9 °F 89% 30.11 in 10.0 mi NW 3.5 mph - N/A   Clear
9:56 AM 48.0 °F - 37.9 °F 68% 30.11 in 10.0 mi NW 8.1 mph - N/A   Clear
10:56 AM 50.0 °F - 37.0 °F 61% 30.10 in 10.0 mi North 8.1 mph - N/A   Clear
11:56 AM 52.0 °F - 35.1 °F 53% 30.10 in 10.0 mi North 5.8 mph - N/A   Clear
12:56 PM 52.0 °F - 36.0 °F 54% 30.10 in 10.0 mi North - - N/A   Mostly Cloudy
1:56 PM 54.0 °F - 36.0 °F 51% 30.08 in 10.0 mi Calm Calm - N/A   Clear
2:56 PM 55.9 °F - 36.0 °F 47% 30.07 in 10.0 mi Variable 3.5 mph - N/A   Clear
3:56 PM 55.9 °F - 36.0 °F 47% 30.06 in 10.0 mi Variable 4.6 mph - N/A   Clear
4:56 PM 55.9 °F - 36.0 °F 47% 30.06 in 10.0 mi Calm Calm - N/A   Clear
5:56 PM 54.0 °F - 37.0 °F 53% 30.06 in 10.0 mi Calm Calm - N/A   Clear
6:56 PM 44.1 °F - 41.0 °F 89% 30.06 in 6.0 mi Calm Calm - N/A   Clear
7:56 PM 41.0 °F - 39.0 °F 93% 30.08 in 10.0 mi Calm Calm - N/A   Clear
8:56 PM 37.9 °F - 36.0 °F 93% 30.07 in 10.0 mi Calm Calm - N/A   Clear
9:56 PM 37.0 °F - 35.1 °F 93% 30.07 in 10.0 mi Calm Calm - N/A   Clear
10:56 PM 36.0 °F 33.3 °F 35.1 °F 97% 30.07 in 10.0 mi NNE 3.5 mph - N/A   Clear
11:56 PM 36.0 °F - 34.0 °F 93% 30.05 in 10.0 mi Calm Calm - N/A   Clear